﻿測定場所 (Monitoring sites),日付 (Measurement date),時間 (Measurement time),線量率 最大値 (max) μGy/h,線量率 最小値 (min) μGy/h,線量率 平均値 (average) μGy/h,
江戸川 (Edogawa),2020-10-18,23:01～24:00,0.0461,0.0401,0.0431,
江戸川 (Edogawa),2020-10-18,22:01～23:00,0.0461,0.0393,0.0427,
江戸川 (Edogawa),2020-10-18,21:01～22:00,0.0460,0.0400,0.0431,
江戸川 (Edogawa),2020-10-18,20:01～21:00,0.0460,0.0393,0.0429,
江戸川 (Edogawa),2020-10-18,19:01～20:00,0.0458,0.0402,0.0428,
江戸川 (Edogawa),2020-10-18,18:01～19:00,0.0451,0.0400,0.0429,
江戸川 (Edogawa),2020-10-18,17:01～18:00,0.0476,0.0389,0.0427,
江戸川 (Edogawa),2020-10-18,16:01～17:00,0.0451,0.0382,0.0416,
江戸川 (Edogawa),2020-10-18,15:01～16:00,0.0447,0.0390,0.0421,
江戸川 (Edogawa),2020-10-18,14:01～15:00,0.0458,0.0393,0.0427,
江戸川 (Edogawa),2020-10-18,13:01～14:00,0.0470,0.0407,0.0434,
江戸川 (Edogawa),2020-10-18,12:01～13:00,0.0462,0.0408,0.0435,
江戸川 (Edogawa),2020-10-18,11:01～12:00,0.0471,0.0405,0.0437,
江戸川 (Edogawa),2020-10-18,10:01～11:00,0.0474,0.0411,0.0440,
江戸川 (Edogawa),2020-10-18,09:01～10:00,0.0480,0.0403,0.0440,
江戸川 (Edogawa),2020-10-18,08:01～09:00,0.0473,0.0397,0.0434,
江戸川 (Edogawa),2020-10-18,07:01～08:00,0.0463,0.0403,0.0435,
江戸川 (Edogawa),2020-10-18,06:01～07:00,0.0472,0.0401,0.0436,
江戸川 (Edogawa),2020-10-18,05:01～06:00,0.0482,0.0407,0.0439,
江戸川 (Edogawa),2020-10-18,04:01～05:00,0.0464,0.0404,0.0434,
江戸川 (Edogawa),2020-10-18,03:01～04:00,0.0467,0.0406,0.0432,
江戸川 (Edogawa),2020-10-18,02:01～03:00,0.0483,0.0406,0.0438,
江戸川 (Edogawa),2020-10-18,01:01～02:00,0.0488,0.0400,0.0448,
江戸川 (Edogawa),2020-10-18,00:01～01:00,0.0498,0.0444,0.0464,
江戸川 (Edogawa),2020-10-17,23:01～24:00,0.0496,0.0428,0.0459,
江戸川 (Edogawa),2020-10-17,22:01～23:00,0.0508,0.0443,0.0474,
江戸川 (Edogawa),2020-10-17,21:01～22:00,0.0519,0.0442,0.0476,
江戸川 (Edogawa),2020-10-17,20:01～21:00,0.0521,0.0455,0.0488,
江戸川 (Edogawa),2020-10-17,19:01～20:00,0.0534,0.0465,0.0494,
江戸川 (Edogawa),2020-10-17,18:01～19:00,0.0547,0.0475,0.0507,
江戸川 (Edogawa),2020-10-17,17:01～18:00,0.0547,0.0483,0.0512,
江戸川 (Edogawa),2020-10-17,16:01～17:00,0.0528,0.0499,0.0509,
江戸川 (Edogawa),2020-10-17,15:01～16:00,0.0553,0.0469,0.0510,
江戸川 (Edogawa),2020-10-17,14:01～15:00,0.0556,0.0479,0.0527,
江戸川 (Edogawa),2020-10-17,13:01～14:00,0.0584,0.0509,0.0545,
江戸川 (Edogawa),2020-10-17,12:01～13:00,0.0601,0.0522,0.0554,
江戸川 (Edogawa),2020-10-17,11:01～12:00,0.0607,0.0522,0.0558,
江戸川 (Edogawa),2020-10-17,10:01～11:00,0.0595,0.0499,0.0551,
江戸川 (Edogawa),2020-10-17,09:01～10:00,0.0559,0.0484,0.0527,
江戸川 (Edogawa),2020-10-17,08:01～09:00,0.0570,0.0512,0.0540,
江戸川 (Edogawa),2020-10-17,07:01～08:00,0.0570,0.0506,0.0543,
江戸川 (Edogawa),2020-10-17,06:01～07:00,0.0574,0.0493,0.0532,
江戸川 (Edogawa),2020-10-17,05:01～06:00,0.0563,0.0474,0.0515,
江戸川 (Edogawa),2020-10-17,04:01～05:00,0.0518,0.0437,0.0473,
江戸川 (Edogawa),2020-10-17,03:01～04:00,0.0488,0.0417,0.0452,
江戸川 (Edogawa),2020-10-17,02:01～03:00,0.0475,0.0418,0.0441,
江戸川 (Edogawa),2020-10-17,01:01～02:00,0.0477,0.0406,0.0438,
江戸川 (Edogawa),2020-10-17,00:01～01:00,0.0465,0.0415,0.0437,
江戸川 (Edogawa),2020-10-16,23:01～24:00,0.0464,0.0396,0.0438,
江戸川 (Edogawa),2020-10-16,22:01～23:00,0.0464,0.0410,0.0441,
江戸川 (Edogawa),2020-10-16,21:01～22:00,0.0491,0.0410,0.0438,
江戸川 (Edogawa),2020-10-16,20:01～21:00,0.0470,0.0396,0.0437,
江戸川 (Edogawa),2020-10-16,19:01～20:00,0.0470,0.0407,0.0435,
江戸川 (Edogawa),2020-10-16,18:01～19:00,0.0461,0.0413,0.0434,
江戸川 (Edogawa),2020-10-16,17:01～18:00,0.0471,0.0408,0.0436,
江戸川 (Edogawa),2020-10-16,16:01～17:00,0.0465,0.0412,0.0439,
江戸川 (Edogawa),2020-10-16,15:01～16:00,0.0462,0.0402,0.0436,
江戸川 (Edogawa),2020-10-16,14:01～15:00,0.0484,0.0403,0.0438,
江戸川 (Edogawa),2020-10-16,13:01～14:00,0.0478,0.0406,0.0441,
江戸川 (Edogawa),2020-10-16,12:01～13:00,0.0472,0.0410,0.0438,
江戸川 (Edogawa),2020-10-16,11:01～12:00,0.0473,0.0397,0.0439,
江戸川 (Edogawa),2020-10-16,10:01～11:00,0.0463,0.0410,0.0438,
江戸川 (Edogawa),2020-10-16,09:01～10:00,0.0483,0.0407,0.0439,
江戸川 (Edogawa),2020-10-16,08:01～09:00,0.0463,0.0410,0.0434,
江戸川 (Edogawa),2020-10-16,07:01～08:00,0.0462,0.0403,0.0431,
江戸川 (Edogawa),2020-10-16,06:01～07:00,0.0464,0.0400,0.0433,
江戸川 (Edogawa),2020-10-16,05:01～06:00,0.0464,0.0408,0.0432,
江戸川 (Edogawa),2020-10-16,04:01～05:00,0.0462,0.0408,0.0432,
江戸川 (Edogawa),2020-10-16,03:01～04:00,0.0462,0.0407,0.0433,
江戸川 (Edogawa),2020-10-16,02:01～03:00,0.0460,0.0413,0.0435,
江戸川 (Edogawa),2020-10-16,01:01～02:00,0.0466,0.0400,0.0433,
江戸川 (Edogawa),2020-10-16,00:01～01:00,0.0465,0.0394,0.0431,
江戸川 (Edogawa),2020-10-15,23:01～24:00,0.0465,0.0393,0.0435,
江戸川 (Edogawa),2020-10-15,22:01～23:00,0.0471,0.0399,0.0440,
江戸川 (Edogawa),2020-10-15,21:01～22:00,0.0469,0.0397,0.0434,
江戸川 (Edogawa),2020-10-15,20:01～21:00,0.0455,0.0400,0.0428,
江戸川 (Edogawa),2020-10-15,19:01～20:00,0.0481,0.0403,0.0432,
江戸川 (Edogawa),2020-10-15,18:01～19:00,0.0485,0.0410,0.0438,
江戸川 (Edogawa),2020-10-15,17:01～18:00,0.0473,0.0410,0.0444,
江戸川 (Edogawa),2020-10-15,16:01～17:00,0.0543,0.0426,0.0480,
江戸川 (Edogawa),2020-10-15,15:01～16:00,0.0578,0.0497,0.0541,
江戸川 (Edogawa),2020-10-15,14:01～15:00,0.0562,0.0485,0.0518,
江戸川 (Edogawa),2020-10-15,13:01～14:00,0.0530,0.0442,0.0492,
江戸川 (Edogawa),2020-10-15,12:01～13:00,0.0493,0.0439,0.0469,
江戸川 (Edogawa),2020-10-15,11:01～12:00,0.0531,0.0449,0.0489,
江戸川 (Edogawa),2020-10-15,10:01～11:00,0.0528,0.0430,0.0478,
江戸川 (Edogawa),2020-10-15,09:01～10:00,0.0481,0.0415,0.0451,
江戸川 (Edogawa),2020-10-15,08:01～09:00,0.0502,0.0431,0.0454,
江戸川 (Edogawa),2020-10-15,07:01～08:00,0.0475,0.0413,0.0447,
江戸川 (Edogawa),2020-10-15,06:01～07:00,0.0472,0.0412,0.0441,
江戸川 (Edogawa),2020-10-15,05:01～06:00,0.0466,0.0403,0.0439,
江戸川 (Edogawa),2020-10-15,04:01～05:00,0.0474,0.0406,0.0438,
江戸川 (Edogawa),2020-10-15,03:01～04:00,0.0470,0.0417,0.0444,
江戸川 (Edogawa),2020-10-15,02:01～03:00,0.0480,0.0404,0.0441,
江戸川 (Edogawa),2020-10-15,01:01～02:00,0.0463,0.0407,0.0440,
江戸川 (Edogawa),2020-10-15,00:01～01:00,0.0471,0.0390,0.0440,
江戸川 (Edogawa),2020-10-14,23:01～24:00,0.0468,0.0405,0.0434,
江戸川 (Edogawa),2020-10-14,22:01～23:00,0.0479,0.0402,0.0439,
江戸川 (Edogawa),2020-10-14,21:01～22:00,0.0480,0.0400,0.0436,
江戸川 (Edogawa),2020-10-14,20:01～21:00,0.0469,0.0411,0.0437,
江戸川 (Edogawa),2020-10-14,19:01～20:00,0.0473,0.0404,0.0439,
江戸川 (Edogawa),2020-10-14,18:01～19:00,0.0475,0.0411,0.0437,
江戸川 (Edogawa),2020-10-14,17:01～18:00,0.0463,0.0411,0.0439,
江戸川 (Edogawa),2020-10-14,16:01～17:00,0.0462,0.0406,0.0436,
江戸川 (Edogawa),2020-10-14,15:01～16:00,0.0476,0.0419,0.0440,
江戸川 (Edogawa),2020-10-14,14:01～15:00,0.0459,0.0399,0.0435,
江戸川 (Edogawa),2020-10-14,13:01～14:00,0.0483,0.0411,0.0437,
江戸川 (Edogawa),2020-10-14,12:01～13:00,0.0471,0.0413,0.0438,
江戸川 (Edogawa),2020-10-14,11:01～12:00,0.0465,0.0404,0.0438,
江戸川 (Edogawa),2020-10-14,10:01～11:00,0.0488,0.0411,0.0440,
江戸川 (Edogawa),2020-10-14,09:01～10:00,0.0464,0.0405,0.0437,
江戸川 (Edogawa),2020-10-14,08:01～09:00,0.0463,0.0390,0.0437,
江戸川 (Edogawa),2020-10-14,07:01～08:00,0.0473,0.0413,0.0441,
江戸川 (Edogawa),2020-10-14,06:01～07:00,0.0466,0.0410,0.0441,
江戸川 (Edogawa),2020-10-14,05:01～06:00,0.0464,0.0407,0.0437,
江戸川 (Edogawa),2020-10-14,04:01～05:00,0.0490,0.0399,0.0434,
江戸川 (Edogawa),2020-10-14,03:01～04:00,0.0461,0.0397,0.0436,
江戸川 (Edogawa),2020-10-14,02:01～03:00,0.0466,0.0404,0.0437,
江戸川 (Edogawa),2020-10-14,01:01～02:00,0.0465,0.0394,0.0433,
江戸川 (Edogawa),2020-10-14,00:01～01:00,0.0461,0.0405,0.0434,
江戸川 (Edogawa),2020-10-13,23:01～24:00,0.0472,0.0406,0.0437,
江戸川 (Edogawa),2020-10-13,22:01～23:00,0.0460,0.0414,0.0434,
江戸川 (Edogawa),2020-10-13,21:01～22:00,0.0466,0.0396,0.0431,
江戸川 (Edogawa),2020-10-13,20:01～21:00,0.0467,0.0401,0.0433,
江戸川 (Edogawa),2020-10-13,19:01～20:00,0.0463,0.0407,0.0433,
江戸川 (Edogawa),2020-10-13,18:01～19:00,0.0469,0.0403,0.0432,
江戸川 (Edogawa),2020-10-13,17:01～18:00,0.0459,0.0408,0.0434,
江戸川 (Edogawa),2020-10-13,16:01～17:00,0.0482,0.0399,0.0434,
江戸川 (Edogawa),2020-10-13,15:01～16:00,0.0470,0.0405,0.0436,
江戸川 (Edogawa),2020-10-13,14:01～15:00,0.0464,0.0412,0.0441,
江戸川 (Edogawa),2020-10-13,13:01～14:00,0.0474,0.0402,0.0438,
江戸川 (Edogawa),2020-10-13,12:01～13:00,0.0466,0.0394,0.0433,
江戸川 (Edogawa),2020-10-13,11:01～12:00,0.0467,0.0404,0.0434,
江戸川 (Edogawa),2020-10-13,10:01～11:00,0.0464,0.0415,0.0442,
江戸川 (Edogawa),2020-10-13,09:01～10:00,0.0484,0.0405,0.0446,
江戸川 (Edogawa),2020-10-13,08:01～09:00,0.0474,0.0421,0.0447,
江戸川 (Edogawa),2020-10-13,07:01～08:00,0.0470,0.0416,0.0446,
江戸川 (Edogawa),2020-10-13,06:01～07:00,0.0474,0.0404,0.0440,
江戸川 (Edogawa),2020-10-13,05:01～06:00,0.0469,0.0410,0.0438,
江戸川 (Edogawa),2020-10-13,04:01～05:00,0.0465,0.0400,0.0436,
江戸川 (Edogawa),2020-10-13,03:01～04:00,0.0468,0.0406,0.0436,
江戸川 (Edogawa),2020-10-13,02:01～03:00,0.0471,0.0410,0.0436,
江戸川 (Edogawa),2020-10-13,01:01～02:00,0.0460,0.0407,0.0434,
江戸川 (Edogawa),2020-10-13,00:01～01:00,0.0457,0.0396,0.0430,
江戸川 (Edogawa),2020-10-12,23:01～24:00,0.0469,0.0406,0.0433,
江戸川 (Edogawa),2020-10-12,22:01～23:00,0.0462,0.0401,0.0432,
江戸川 (Edogawa),2020-10-12,21:01～22:00,0.0469,0.0395,0.0433,
江戸川 (Edogawa),2020-10-12,20:01～21:00,0.0473,0.0403,0.0434,
江戸川 (Edogawa),2020-10-12,19:01～20:00,0.0469,0.0404,0.0429,
江戸川 (Edogawa),2020-10-12,18:01～19:00,0.0462,0.0396,0.0431,
江戸川 (Edogawa),2020-10-12,17:01～18:00,0.0463,0.0396,0.0433,
江戸川 (Edogawa),2020-10-12,16:01～17:00,0.0468,0.0397,0.0430,
江戸川 (Edogawa),2020-10-12,15:01～16:00,0.0468,0.0397,0.0432,
江戸川 (Edogawa),2020-10-12,14:01～15:00,0.0462,0.0391,0.0434,
江戸川 (Edogawa),2020-10-12,13:01～14:00,0.0463,0.0408,0.0430,
江戸川 (Edogawa),2020-10-12,12:01～13:00,0.0459,0.0398,0.0434,
江戸川 (Edogawa),2020-10-12,11:01～12:00,0.0471,0.0391,0.0432,
江戸川 (Edogawa),2020-10-12,10:01～11:00,0.0478,0.0393,0.0433,
江戸川 (Edogawa),2020-10-12,09:01～10:00,0.0462,0.0391,0.0430,
江戸川 (Edogawa),2020-10-12,08:01～09:00,0.0462,0.0391,0.0433,
江戸川 (Edogawa),2020-10-12,07:01～08:00,0.0456,0.0397,0.0429,
江戸川 (Edogawa),2020-10-12,06:01～07:00,0.0462,0.0404,0.0428,
江戸川 (Edogawa),2020-10-12,05:01～06:00,0.0460,0.0407,0.0431,
江戸川 (Edogawa),2020-10-12,04:01～05:00,0.0462,0.0399,0.0428,
江戸川 (Edogawa),2020-10-12,03:01～04:00,0.0456,0.0405,0.0433,
江戸川 (Edogawa),2020-10-12,02:01～03:00,0.0462,0.0398,0.0430,
江戸川 (Edogawa),2020-10-12,01:01～02:00,0.0461,0.0407,0.0433,
江戸川 (Edogawa),2020-10-12,00:01～01:00,0.0475,0.0389,0.0432,
